Volver al catálogo

COSMOS 2251 DEB

ActivoLEO
NORAD 36053·DEBRIS·🇷🇺 Russia

Lanzado Jun 16, 1993 desde Plesetsk Cosmodrome

Loading…

Próximos Pases (próximas 24 horas)

TLE

ActualizadoSource: Space-Track

Época: Sep 13, 2026, 05:51 UTC

1 36053U 93036AXQ 26256.24429027  .00003543  00000-0  73183-3 0  9999
2 36053  73.8729 344.3331 0029404 238.2444 121.5855 14.60514541914486

Sigue COSMOS 2251 DEB en tiempo real con AllMySat

Download on the App Store